Weather History for KPVD - March, 2013

Change the Weather History Date:

Saturday, March 23, 2013

  Actual Average Record
Temperature  
Mean Temperature 37 °F 41 °F  
Max Temperature 45 °F 50 °F 77 °F (1938)
Min Temperature 28 °F 32 °F 8 °F (1934)
Degree Days  
Heating Degree Days 28 24  
Month to date heating degree days 646 629  
Since 1 July heating degree days 4467 4691  
Cooling Degree Days 0 0  
Month to date cooling degree days 0 0  
Year to date cooling degree days 0 0  
Moisture  
Dew Point 18 °F    
Average Humidity 51    
Maximum Humidity 75    
Minimum Humidity 27    
Precipitation  
Precipitation 0.00 in 0.17 in 3.30 in (2010)
Month to date precipitation 2.58 3.63  
Year to date precipitation 9.54 10.78  
Snow  
Snow 0.00 in 0.20 in 1.40 in (2005)
Month to date snowfall 4.9 4.7  
Since 1 July snowfall 46.3 32.4  
Snow Depth 0.00 in    
Sea Level Pressure  
Sea Level Pressure 29.75 in    
Wind  
Wind Speed 14 mph (WNW)    
Max Wind Speed 29 mph    
Max Gust Speed 40 mph    
Visibility 10 miles    
Events Rain    
T = Trace of Precipitation, MM = Missing Value Source: NWS Daily Summary

Daily Weather History Graph

Daily Weather History Graph

Search for Another Location

Airport or City:

Trip Planner

Search our weather history database for the weather conditions in past years. The results will help you decide how hot, cold, wet, or windy it might be!

Date:

Astronomy

Mar. 23, 2013 Rise Set
Actual Time 6:43 AM EDT 7:01 PM EDT
Civil Twilight 6:15 AM EDT 7:29 PM EDT
Nautical Twilight 5:43 AM EDT 8:02 PM EDT
Astronomical Twilight 5:09 AM EDT 8:35 PM EDT
Moon 3:22 PM EDT (3/23) 4:21 AM EDT (3/23)
Length of Visible Light 13h 13m
Length of Day
12h 17m
Waxing Gibbous, 85% of the Moon is Illuminated
Mar 23
Waxing Gibbous
Mar 27
Full
Apr 3
Last Quarter
Apr 10
New
Apr 18
First Quarter

Hourly Weather History & Observations

Time (EDT) Temp. Windchill Dew Point Humidity Pressure Visibility Wind Dir Wind Speed Gust Speed Precip Events Conditions
12:51 AM 32.0 °F 22.5 °F 19.0 °F 59% 29.78 in 10.0 mi WNW 12.7 mph 18.4 mph N/A   Clear
1:51 AM 32.0 °F 23.0 °F 18.0 °F 56% 29.78 in 10.0 mi West 11.5 mph 18.4 mph N/A   Clear
2:51 AM 32.0 °F 23.0 °F 19.0 °F 59% 29.77 in 10.0 mi West 11.5 mph - N/A   Clear
3:51 AM 30.0 °F 22.4 °F 19.0 °F 64% 29.77 in 10.0 mi WNW 8.1 mph - N/A   Clear
4:51 AM 30.9 °F 22.8 °F 21.0 °F 67% 29.75 in 10.0 mi West 9.2 mph - N/A   Clear
5:51 AM 30.0 °F 26.5 °F 21.9 °F 72% 29.76 in 10.0 mi West 3.5 mph - N/A   Scattered Clouds
6:51 AM 28.9 °F 25.2 °F 21.0 °F 72% 29.76 in 10.0 mi SSW 3.5 mph - N/A   Scattered Clouds
7:51 AM 33.1 °F 23.9 °F 23.0 °F 66% 29.76 in 10.0 mi West 12.7 mph 17.3 mph N/A   Partly Cloudy
8:51 AM 37.0 °F 27.7 °F 21.0 °F 52% 29.74 in 10.0 mi West 16.1 mph 21.9 mph N/A   Scattered Clouds
9:51 AM 39.0 °F 28.5 °F 21.0 °F 49% 29.73 in 10.0 mi WNW 23.0 mph 31.1 mph N/A   Scattered Clouds
10:51 AM 39.9 °F 31.8 °F 19.0 °F 43% 29.72 in 10.0 mi WNW 15.0 mph 29.9 mph N/A   Mostly Cloudy
11:51 AM 39.9 °F 30.8 °F 17.1 °F 40% 29.72 in 10.0 mi NW 18.4 mph 31.1 mph N/A   Mostly Cloudy
12:51 PM 43.0 °F 35.4 °F 17.1 °F 35% 29.71 in 10.0 mi WNW 16.1 mph 32.2 mph N/A   Scattered Clouds
1:51 PM 42.1 °F 33.1 °F 15.1 °F 34% 29.71 in 10.0 mi WNW 20.7 mph 33.4 mph 0.00 in Rain Light Rain
2:51 PM 44.1 °F 35.4 °F 14.0 °F 30% 29.70 in 10.0 mi West 21.9 mph 33.4 mph N/A   Scattered Clouds
3:51 PM 44.1 °F 35.4 °F 12.9 °F 28% 29.68 in 10.0 mi West 21.9 mph 39.1 mph N/A   Partly Cloudy
4:51 PM 44.1 °F 35.9 °F 14.0 °F 30% 29.70 in 10.0 mi NW 19.6 mph 35.7 mph N/A   Partly Cloudy
5:51 PM 41.0 °F 33.9 °F 14.0 °F 33% 29.72 in 10.0 mi WNW 12.7 mph 34.5 mph N/A   Scattered Clouds
6:51 PM 39.9 °F 30.8 °F 15.1 °F 36% 29.74 in 10.0 mi NW 18.4 mph 26.5 mph N/A   Scattered Clouds
7:51 PM 37.9 °F 30.0 °F 17.1 °F 43% 29.77 in 10.0 mi WNW 12.7 mph - N/A   Partly Cloudy
8:51 PM 37.9 °F 30.9 °F 17.1 °F 43% 29.80 in 10.0 mi WNW 10.4 mph 16.1 mph N/A   Partly Cloudy
9:51 PM 37.0 °F 30.4 °F 17.1 °F 44% 29.81 in 10.0 mi WNW 9.2 mph - N/A   Partly Cloudy
10:51 PM 36.0 °F 29.6 °F 17.1 °F 46% 29.82 in 10.0 mi West 8.1 mph - N/A   Scattered Clouds
11:51 PM 35.1 °F 27.9 °F 17.1 °F 48% 29.82 in 10.0 mi West 9.2 mph - N/A   Clear